{"data":{"norad_id":60142,"epoch":"2026-05-24T21:10:29.932032Z","epoch_age_seconds":95477,"freshness":"FRESH","line1":"1 60142U 24120H   26144.88229088  .00000501  00000+0  25976-4 0  9992","line2":"2 60142  53.1612 325.8749 0000970  90.1979 269.9135 15.34388724108124","mean_motion":15.34388724,"eccentricity":9.7e-5,"inclination_deg":53.1612,"raan_deg":325.8749,"arg_perigee_deg":90.1979,"mean_anomaly_deg":269.9135,"bstar":2.5976e-5,"rev_number":10812,"period_min":93.848447754886,"perigee_km":462.07319030642,"apogee_km":463.4003198149,"semimajor_km":6840.8737550607,"source":"CELESTRAK","updated_at":"2026-05-25T13:38:19.188957Z"}}